• In Hungary
  • List of Countries
  • For 7 days
  • Water Temperature
  • Satellite Maps
  • Weather Map
  • News
  • Weather Widgets
  • user-avatar
    Login

    Hourly Weather Gifhorn

    Today, 15 December, Friday

    Time Temperature Precipitation Wind Pressure Humidity
    00:00 0°C° 0 mm 3 mps 739 mmHg 90%
    01:00 +1°C° 0 mm 2 mps 738 mmHg 92%
    02:00 +1°C° 0 mm 2 mps 738 mmHg 92%
    03:00 +1°C° 0 mm 2 mps 738 mmHg 92%
    04:00 +2°C° 0 mm 1 mps 738 mmHg 92%
    05:00 +2°C° 0 mm 1 mps 739 mmHg 93%
    06:00 +2°C° 0 mm 1 mps 739 mmHg 93%
    07:00 +1°C° 0 mm 2 mps 739 mmHg 94%
    08:00 +1°C° 0 mm 2 mps 740 mmHg 93%
    09:00 +1°C° 0 mm 2 mps 740 mmHg 93%
    10:00 0°C° 0 mm 3 mps 741 mmHg 92%
    11:00 +1°C° 0 mm 3 mps 741 mmHg 89%
    12:00 +1°C° 0 mm 3 mps 741 mmHg 86%
    13:00 +2°C° 0 mm 3 mps 742 mmHg 83%
    14:00 +2°C° 0 mm 2 mps 742 mmHg 85%
    15:00 +2°C° 0 mm 2 mps 742 mmHg 88%
    16:00 +2°C° 0 mm 1 mps 743 mmHg 91%
    17:00 +2°C° 0 mm 1 mps 743 mmHg 91%
    18:00 +1°C° 0 mm 1 mps 743 mmHg 92%
    19:00 +1°C° 0 mm 1 mps 744 mmHg 93%
    20:00 -1°C° 0 mm 2 mps 744 mmHg 93%
    21:00 -1°C° 0 mm 2 mps 745 mmHg 94%
    22:00 -1°C° 0 mm 2 mps 745 mmHg 94%
    23:00 -1°C° 0 mm 2 mps 746 mmHg 94%

    Tomorrow, 16 December, Saturday

    Time Temperature Precipitation Wind Pressure Humidity
    00:00 -1°C° 0 mm 2 mps 746 mmHg 94%
    01:00 -1°C° 0 mm 2 mps 746 mmHg 95%
    02:00 -1°C° 0 mm 3 mps 746 mmHg 95%
    03:00 -1°C° 0 mm 3 mps 747 mmHg 95%
    04:00 -1°C° 0 mm 3 mps 747 mmHg 94%
    05:00 -2°C° 0 mm 4 mps 747 mmHg 94%
    06:00 -1°C° 0 mm 4 mps 747 mmHg 93%
    07:00 -1°C° 0 mm 4 mps 748 mmHg 92%
    08:00 -1°C° 0 mm 4 mps 748 mmHg 90%
    09:00 -1°C° 0 mm 4 mps 748 mmHg 89%
    10:00 -1°C° 0 mm 4 mps 749 mmHg 88%
    11:00 0°C° 0 mm 4 mps 749 mmHg 84%
    12:00 +1°C° 0 mm 5 mps 749 mmHg 81%
    13:00 +1°C° 0 mm 5 mps 749 mmHg 78%
    14:00 +1°C° 0 mm 5 mps 750 mmHg 81%
    15:00 0°C° 0 mm 5 mps 750 mmHg 83%
    16:00 0°C° 0 mm 4 mps 751 mmHg 86%
    17:00 0°C° 0.1 mm 4 mps 751 mmHg 86%
    18:00 0°C° 0.1 mm 4 mps 752 mmHg 87%
    19:00 -1°C° 0.1 mm 4 mps 752 mmHg 88%
    20:00 -1°C° 0.1 mm 4 mps 753 mmHg 88%
    21:00 -1°C° 0.1 mm 4 mps 753 mmHg 88%
    22:00 -1°C° 0.1 mm 4 mps 754 mmHg 88%
    23:00 -1°C° 0 mm 4 mps 754 mmHg 87%

    Day after tomorrow, 17 December, Sunday

    Time Temperature Precipitation Wind Pressure Humidity
    00:00 -1°C° 0 mm 5 mps 754 mmHg 87%
    01:00 -1°C° 0 mm 5 mps 755 mmHg 87%
    02:00 -1°C° 0.1 mm 5 mps 755 mmHg 87%
    03:00 -1°C° 0.1 mm 5 mps 755 mmHg 87%
    04:00 -2°C° 0.1 mm 5 mps 756 mmHg 87%
    05:00 -2°C° 0 mm 4 mps 756 mmHg 88%
    06:00 -2°C° 0 mm 4 mps 757 mmHg 88%
    07:00 -2°C° 0 mm 4 mps 757 mmHg 89%
    08:00 -1°C° 0 mm 4 mps 758 mmHg 88%
    09:00 -1°C° 0 mm 4 mps 759 mmHg 87%
    10:00 -1°C° 0 mm 4 mps 759 mmHg 85%
    11:00 0°C° 0 mm 4 mps 759 mmHg 83%
    12:00 0°C° 0 mm 5 mps 760 mmHg 81%
    13:00 +1°C° 0 mm 5 mps 760 mmHg 79%
    14:00 +1°C° 0 mm 4 mps 760 mmHg 82%
    15:00 0°C° 0 mm 4 mps 760 mmHg 85%
    16:00 0°C° 0 mm 4 mps 761 mmHg 88%
    17:00 -1°C° 0 mm 4 mps 761 mmHg 89%
    18:00 -1°C° 0 mm 4 mps 761 mmHg 89%
    19:00 -1°C° 0 mm 4 mps 761 mmHg 90%
    20:00 0°C° 0 mm 4 mps 761 mmHg 90%
    21:00 0°C° 0 mm 4 mps 760 mmHg 90%
    22:00 0°C° 0 mm 4 mps 760 mmHg 90%
    23:00 0°C° 0.4 mm 5 mps 760 mmHg 89%

    18 December, Monday

    Time Temperature Precipitation Wind Pressure Humidity
    00:00 0°C° 0.4 mm 5 mps 759 mmHg 88%
    01:00 +1°C° 0.4 mm 5 mps 758 mmHg 87%
    02:00 +1°C° 1.3 mm 5 mps 757 mmHg 88%
    03:00 +1°C° 1.3 mm 5 mps 756 mmHg 88%
    04:00 +1°C° 1.3 mm 5 mps 755 mmHg 89%
    05:00 +2°C° 0.6 mm 5 mps 755 mmHg 90%
    06:00 +2°C° 0.6 mm 5 mps 755 mmHg 91%
    07:00 +3°C° 0.6 mm 5 mps 755 mmHg 92%
    08:00 +3°C° 0.5 mm 5 mps 755 mmHg 91%
    09:00 +3°C° 0.5 mm 5 mps 756 mmHg 89%
    10:00 +2°C° 0.5 mm 5 mps 756 mmHg 88%
    11:00 +3°C° 0 mm 5 mps 757 mmHg 87%
    12:00 +3°C° 0 mm 5 mps 757 mmHg 86%
    13:00 +4°C° 0 mm 4 mps 758 mmHg 86%
    14:00 +4°C° 0 mm 4 mps 758 mmHg 88%
    15:00 +4°C° 0 mm 4 mps 759 mmHg 89%
    16:00 +4°C° 0 mm 3 mps 760 mmHg 91%
    17:00 +4°C° 0.1 mm 3 mps 760 mmHg 93%
    18:00 +4°C° 0.1 mm 3 mps 761 mmHg 94%
    19:00 +4°C° 0.1 mm 3 mps 762 mmHg 95%
    20:00 +5°C° 0 mm 2 mps 763 mmHg 96%
    21:00 +5°C° 0 mm 2 mps 763 mmHg 96%
    22:00 +4°C° 0 mm 2 mps 764 mmHg 96%
    23:00 +4°C° 0 mm 2 mps 765 mmHg 96%

    19 December, Tuesday

    Time Temperature Precipitation Wind Pressure Humidity
    00:00 +4°C° 0 mm 2 mps 765 mmHg 95%
    01:00 +3°C° 0 mm 3 mps 766 mmHg 95%
    02:00 +3°C° 0 mm 2 mps 767 mmHg 94%
    03:00 +3°C° 0 mm 2 mps 767 mmHg 93%
    04:00 +3°C° 0 mm 2 mps 768 mmHg 93%
    05:00 +3°C° 0 mm 2 mps 768 mmHg 93%
    06:00 +4°C° 0 mm 1 mps 769 mmHg 92%
    07:00 +4°C° 0 mm 1 mps 769 mmHg 92%
    08:00 +4°C° 0 mm 1 mps 770 mmHg 91%
    09:00 +4°C° 0 mm 1 mps 770 mmHg 91%
    10:00 +4°C° 0 mm 1 mps 771 mmHg 90%
    11:00 +5°C° 0 mm 1 mps 771 mmHg 87%
    12:00 +4°C° 0 mm 2 mps 771 mmHg 84%
    13:00 +5°C° 0 mm 2 mps 771 mmHg 81%
    14:00 +4°C° 0 mm 2 mps 771 mmHg 83%
    15:00 +4°C° 0 mm 2 mps 771 mmHg 85%
    16:00 +3°C° 0 mm 2 mps 771 mmHg 87%
    17:00 +3°C° 0 mm 2 mps 771 mmHg 88%
    18:00 +2°C° 0 mm 3 mps 771 mmHg 89%
    19:00 +2°C° 0 mm 3 mps 771 mmHg 89%
    20:00 +2°C° 0 mm 3 mps 771 mmHg 89%
    21:00 +2°C° 0 mm 3 mps 771 mmHg 88%
    22:00 +2°C° 0 mm 3 mps 771 mmHg 88%
    23:00 +1°C° 0 mm 4 mps 771 mmHg 87%

    20 December, Wednesday

    Time Temperature Precipitation Wind Pressure Humidity
    00:00 +1°C° 0 mm 4 mps 771 mmHg 87%
    01:00 +1°C° 0 mm 4 mps 771 mmHg 86%
    02:00 +1°C° 0 mm 4 mps 770 mmHg 87%
    03:00 +1°C° 0 mm 4 mps 770 mmHg 88%
    04:00 +1°C° 0 mm 4 mps 770 mmHg 89%
    05:00 +1°C° 0.2 mm 4 mps 770 mmHg 89%
    06:00 +1°C° 0.2 mm 4 mps 769 mmHg 90%
    07:00 +3°C° 0.2 mm 4 mps 769 mmHg 90%
    08:00 +3°C° 0.1 mm 4 mps 769 mmHg 91%
    09:00 +4°C° 0.1 mm 4 mps 770 mmHg 92%
    10:00 +4°C° 0.1 mm 4 mps 770 mmHg 93%
    11:00 +4°C° 0.1 mm 4 mps 770 mmHg 93%
    12:00 +5°C° 0.1 mm 4 mps 770 mmHg 93%
    13:00 +5°C° 0.1 mm 4 mps 769 mmHg 93%
    14:00 +6°C° 0.1 mm 4 mps 769 mmHg 94%
    15:00 +6°C° 0.1 mm 4 mps 769 mmHg 94%
    16:00 +6°C° 0.1 mm 4 mps 769 mmHg 95%
    17:00 +7°C° 0.1 mm 4 mps 770 mmHg 95%
    18:00 +7°C° 0.1 mm 4 mps 770 mmHg 95%
    19:00 +7°C° 0.1 mm 4 mps 770 mmHg 95%
    20:00 +7°C° 0 mm 5 mps 770 mmHg 94%
    21:00 +7°C° 0 mm 5 mps 770 mmHg 94%
    22:00 +7°C° 0 mm 5 mps 770 mmHg 93%
    23:00 +7°C° 0 mm 5 mps 771 mmHg 93%
    Show more